Location: Puketoi
(40.5833°S, 176.0167°E)
Time: 04:25:14
(UTC+00:00)

PAYLOAD A - Pass Details

Date: 23 September 2023
Orbit: 691 x 830 km, 98.5° (Epoch: 09 December)

Event Time Altitude Azimuth Distance (km) Brightness Sun altitude
Exits shadow 15:22:34 20° 204° (SSW) 1,857 6.0 -30.1°
Drops below altitude 10° 15:24:10 10° 200° (SSW) 2,460 6.7 -29.8°
Sets 15:26:36 0° 196° (SSW) 3,408 7.5 -29.4°
